Voltar ao catálogo

STARLINK-11514

AtivoComunicaçõesVLEO
NORAD 62514·PAYLOAD·🇺🇸 United States

Lançado Jan 8, 2025 de Cape Canaveral Space Force Station

Loading…

Próximas Passagens (próximas 24 horas)

TLE

AtualizadoSource: CelesTrak SupGP

Época: Sep 15, 2026, 02:29 UTC

1 62514C 25004D   26258.10395833 -.00086980  00000+0 -67561-3 0  2582
2 62514  43.0011   8.9096 0001700 259.1189 312.6464 15.70880121    14

Acompanhe STARLINK-11514 em tempo real com AllMySat

Download on the App Store